Weather History for Cavalier, ND

Change the Weather History Date:

Tuesday, November 5, 2013

  Actual Average (KGAF) Record (KGAF)
Temperature  
Mean Temperature 24 °F -  
Max Temperature 33 °F 42 °F 78 °F (1975)
Min Temperature 14 °F 26 °F -10 °F (1951)
Degree Days  
Heating Degree Days 42    
Moisture  
Dew Point 16 °F    
Average Humidity 68    
Maximum Humidity 93    
Minimum Humidity 52    
Precipitation  
Precipitation 0.00 in - - ()
Sea Level Pressure  
Sea Level Pressure 30.09 in    
Wind  
Wind Speed 11 mph (West)    
Max Wind Speed 17 mph    
Max Gust Speed 26 mph    
Visibility 10 miles    
Events      
Averages and records for this station are not official NWS values.
T = Trace of Precipitation, MM = Missing Value Source: NWS Daily Summary

Daily Weather History Graph

Daily Weather History Graph

Search for Another Location

Airport:

Trip Planner

Search our weather history database for the weather conditions in past years. The results will help you decide how hot, cold, wet, or windy it might be!

Date:

Astronomy

Nov. 05, 2013 Rise Set
Actual Time 7:24 AM CST 5:03 PM CST
Civil Twilight 6:50 AM CST 5:36 PM CST
Nautical Twilight 6:13 AM CST 6:14 PM CST
Astronomical Twilight 5:36 AM CST 6:51 PM CST
Moon 9:48 AM CST (11/5) 6:58 PM CST (11/5)
Length of Visible Light 10h 46m
Length of Day
9h 39m
Waxing Crescent, 7% of the Moon is Illuminated
Nov 5
Waxing Crescent
Nov 9
First Quarter
Nov 17
Full
Nov 25
Last Quarter
Dec 2
New

Hourly Weather History & Observations

Time (CST) Temp. Windchill Dew Point Humidity Pressure Visibility Wind Dir Wind Speed Gust Speed Precip Events Conditions
12:15 AM 28.4 °F 18.0 °F 17.6 °F 64% 29.96 in 10.0 mi West 12.7 mph 17.3 mph N/A   Clear
12:35 AM 28.4 °F 17.0 °F 17.6 °F 64% 29.97 in 10.0 mi West 15.0 mph 19.6 mph N/A   Clear
12:55 AM 28.4 °F 17.5 °F 17.6 °F 64% 29.97 in 10.0 mi WSW 13.8 mph 21.9 mph N/A   Clear
1:15 AM 28.4 °F 18.5 °F 15.8 °F 59% 29.98 in 10.0 mi WSW 11.5 mph 20.7 mph N/A   Clear
1:35 AM 28.4 °F 18.0 °F 17.6 °F 64% 29.98 in 10.0 mi WSW 12.7 mph - N/A   Clear
1:55 AM 28.4 °F 19.1 °F 17.6 °F 64% 29.98 in 10.0 mi SW 10.4 mph 18.4 mph N/A   Clear
2:15 AM 26.6 °F 15.7 °F 15.8 °F 64% 29.99 in 10.0 mi WSW 12.7 mph 19.6 mph N/A   Clear
2:35 AM 26.6 °F 15.7 °F 15.8 °F 64% 30.00 in 10.0 mi WSW 12.7 mph 19.6 mph N/A   Clear
2:55 AM 26.6 °F 16.2 °F 15.8 °F 64% 30.01 in 10.0 mi West 11.5 mph - N/A   Clear
3:15 AM 26.6 °F 17.5 °F 15.8 °F 64% 30.02 in 10.0 mi West 9.2 mph - N/A   Clear
3:35 AM 26.6 °F 16.2 °F 15.8 °F 64% 30.02 in 10.0 mi West 11.5 mph 17.3 mph N/A   Clear
3:55 AM 26.6 °F 17.5 °F 15.8 °F 64% 30.03 in 10.0 mi West 9.2 mph 16.1 mph N/A   Clear
4:15 AM 24.8 °F 14.0 °F 15.8 °F 69% 30.04 in 10.0 mi WSW 11.5 mph - N/A   Clear
4:35 AM 24.8 °F 15.3 °F 15.8 °F 69% 30.04 in 10.0 mi WSW 9.2 mph - N/A   Clear
4:55 AM 24.8 °F 14.6 °F 15.8 °F 69% 30.05 in 10.0 mi West 10.4 mph - N/A   Clear
5:15 AM 24.8 °F 14.6 °F 15.8 °F 69% 30.06 in 10.0 mi WSW 10.4 mph - N/A   Clear
5:35 AM 24.8 °F 14.6 °F 15.8 °F 69% 30.06 in 10.0 mi WSW 10.4 mph 17.3 mph N/A   Clear
5:55 AM 24.8 °F 14.0 °F 15.8 °F 69% 30.06 in 10.0 mi WSW 11.5 mph 17.3 mph N/A   Clear
6:15 AM 24.8 °F 14.0 °F 15.8 °F 69% 30.06 in 10.0 mi West 11.5 mph 16.1 mph N/A   Clear
6:35 AM 23.0 °F 12.4 °F 15.8 °F 74% 30.06 in 10.0 mi West 10.4 mph - N/A   Clear
6:55 AM 23.0 °F 12.4 °F 17.6 °F 80% 30.07 in 10.0 mi West 10.4 mph - N/A   Clear
7:15 AM 23.0 °F 13.1 °F 15.8 °F 74% 30.08 in 10.0 mi West 9.2 mph - N/A   Clear
7:35 AM 23.0 °F 13.9 °F 15.8 °F 74% 30.08 in 10.0 mi West 8.1 mph - N/A   Clear
7:55 AM 23.0 °F 13.1 °F 17.6 °F 80% 30.09 in 10.0 mi WSW 9.2 mph - N/A   Clear
8:15 AM 24.8 °F 16.1 °F 17.6 °F 74% 30.10 in 10.0 mi WSW 8.1 mph - N/A   Clear
8:35 AM 24.8 °F 14.0 °F 17.6 °F 74% 30.11 in 10.0 mi West 11.5 mph - N/A   Partly Cloudy
8:55 AM 24.8 °F 12.9 °F 17.6 °F 74% 30.11 in 10.0 mi West 13.8 mph 20.7 mph N/A   Mostly Cloudy
9:15 AM 26.6 °F 13.8 °F 17.6 °F 69% 30.12 in 10.0 mi WNW 17.3 mph 26.5 mph N/A   Mostly Cloudy
9:35 AM 26.6 °F 14.7 °F 15.8 °F 64% 30.12 in 10.0 mi West 15.0 mph 23.0 mph N/A   Partly Cloudy
9:55 AM 26.6 °F 15.2 °F 17.6 °F 69% 30.11 in 10.0 mi WNW 13.8 mph 19.6 mph N/A   Clear
10:15 AM 28.4 °F 17.5 °F 17.6 °F 64% 30.11 in 10.0 mi West 13.8 mph 20.7 mph N/A   Clear
10:35 AM 28.4 °F 18.5 °F 17.6 °F 64% 30.12 in 10.0 mi West 11.5 mph - N/A   Clear
10:55 AM 30.2 °F 19.8 °F 17.6 °F 60% 30.13 in 10.0 mi WNW 13.8 mph - N/A   Clear
11:15 AM 30.2 °F 20.8 °F 17.6 °F 60% 30.15 in 10.0 mi West 11.5 mph - N/A   Clear
11:35 AM 32.0 °F 24.8 °F 17.6 °F 55% 30.15 in 10.0 mi West 8.1 mph 16.1 mph N/A   Partly Cloudy
11:55 AM 32.0 °F 23.0 °F 19.4 °F 60% 30.15 in 10.0 mi West 11.5 mph - N/A   Scattered Clouds
12:15 PM 32.0 °F 22.5 °F 17.6 °F 55% 30.15 in 10.0 mi West 12.7 mph 17.3 mph N/A   Partly Cloudy
12:35 PM 32.0 °F 22.1 °F 19.4 °F 60% 30.14 in 10.0 mi West 13.8 mph 19.6 mph N/A   Clear
12:55 PM 32.0 °F 22.1 °F 19.4 °F 60% 30.13 in 10.0 mi West 13.8 mph 21.9 mph N/A   Clear
1:15 PM 32.0 °F 21.6 °F 19.4 °F 60% 30.13 in 10.0 mi West 15.0 mph 19.6 mph N/A   Clear
1:35 PM 32.0 °F 23.6 °F 19.4 °F 60% 30.11 in 10.0 mi WSW 10.4 mph 20.7 mph N/A   Clear
1:55 PM 33.8 °F 24.3 °F 19.4 °F 56% 30.11 in 10.0 mi West 13.8 mph 17.3 mph N/A   Clear
2:15 PM 33.8 °F 25.3 °F 19.4 °F 56% 30.11 in 10.0 mi WNW 11.5 mph 17.3 mph N/A   Clear
2:35 PM 32.0 °F 23.0 °F 17.6 °F 55% 30.11 in 10.0 mi WNW 11.5 mph - N/A   Clear
2:55 PM 32.0 °F 23.0 °F 17.6 °F 55% 30.11 in 10.0 mi West 11.5 mph - N/A   Clear
3:15 PM 32.0 °F 24.2 °F 17.6 °F 55% 30.11 in 10.0 mi West 9.2 mph - N/A   Clear
3:35 PM 33.8 °F 26.4 °F 17.6 °F 52% 30.12 in 10.0 mi West 9.2 mph - N/A   Clear
3:55 PM 32.0 °F 23.6 °F 17.6 °F 55% 30.12 in 10.0 mi West 10.4 mph - N/A   Clear
4:15 PM 32.0 °F 24.2 °F 17.6 °F 55% 30.12 in 10.0 mi West 9.2 mph - N/A   Clear
4:35 PM 32.0 °F 24.8 °F 17.6 °F 55% 30.12 in 10.0 mi WSW 8.1 mph - N/A   Clear
4:55 PM 30.2 °F 22.6 °F 17.6 °F 60% 30.12 in 10.0 mi West 8.1 mph - N/A   Clear
5:15 PM 28.4 °F 20.4 °F 17.6 °F 64% 30.12 in 10.0 mi West 8.1 mph - N/A   Clear
5:35 PM 28.4 °F 20.4 °F 17.6 °F 64% 30.12 in 10.0 mi West 8.1 mph - N/A   Clear
5:55 PM 26.6 °F 19.1 °F 17.6 °F 69% 30.12 in 9.0 mi West 6.9 mph - N/A   Clear
6:15 PM 26.6 °F 18.2 °F 15.8 °F 64% 30.12 in 10.0 mi West 8.1 mph - N/A   Clear
6:35 PM 24.8 °F 16.1 °F 15.8 °F 69% 30.11 in 10.0 mi West 8.1 mph - N/A   Clear
6:55 PM 24.8 °F 16.9 °F 15.8 °F 69% 30.11 in 10.0 mi West 6.9 mph - N/A   Clear
7:15 PM 24.8 °F 16.9 °F 15.8 °F 69% 30.11 in 10.0 mi WNW 6.9 mph - N/A   Clear
7:35 PM 24.8 °F 19.1 °F 15.8 °F 69% 30.11 in 10.0 mi NNW 4.6 mph - N/A   Clear
7:55 PM 23.0 °F 17.0 °F 15.8 °F 74% 30.11 in 10.0 mi NW 4.6 mph - N/A   Clear
8:15 PM 21.2 °F 14.9 °F 15.8 °F 80% 30.12 in 10.0 mi NNW 4.6 mph - N/A   Clear
8:35 PM 23.0 °F 17.0 °F 15.8 °F 74% 30.12 in 10.0 mi NNW 4.6 mph - N/A   Clear
8:55 PM 23.0 °F 18.4 °F 15.8 °F 74% 30.12 in 10.0 mi NNW 3.5 mph - N/A   Clear
9:15 PM 19.4 °F - 15.8 °F 86% 30.12 in 10.0 mi Calm Calm - N/A   Clear
9:35 PM 17.6 °F - 14.0 °F 86% 30.12 in 10.0 mi Calm Calm - N/A   Clear
9:55 PM 15.8 °F - 14.0 °F 93% 30.13 in 10.0 mi Calm Calm - N/A   Clear
10:15 PM 15.8 °F - 12.2 °F 86% 30.13 in 10.0 mi Calm Calm - N/A   Clear
10:35 PM 14.0 °F - 10.4 °F 86% 30.13 in 9.0 mi Calm Calm - N/A   Clear
10:55 PM 15.8 °F - 14.0 °F 93% 30.13 in 8.0 mi Calm Calm - N/A   Clear
11:15 PM 14.0 °F - 10.4 °F 86% 30.13 in 8.0 mi Calm Calm - N/A   Clear
11:35 PM 14.0 °F - 10.4 °F 86% 30.13 in 10.0 mi Calm Calm - N/A   Clear
11:55 PM 14.0 °F - 12.2 °F 93% 30.13 in 9.0 mi Calm Calm - N/A   Clear